EW5123 Weather Reports


time (UTC)temp
C
wind
direction
speed
KPH
gust
KPH
rain 1hr
cm
rain 24hr
cm
rain mn
cm
humidity
%
barometer
mb
20260905053008 20 231 0.0 6.4 0.00 0.00 0.00 48 984.3
20260905052508 20 196 1.6 6.4 0.00 0.00 0.00 49 984.3
20260905052006 20 210 1.6 8.0 0.00 0.00 0.00 50 984.3
20260905051506 20 182 1.6 11.3 0.00 0.00 0.00 51 984.1
20260905051006 20 185 3.2 11.3 0.00 0.00 0.00 51 984.3
20260905050505 20 153 3.2 11.3 0.00 0.00 0.00 50 984.3
20260905050005 20 198 3.2 11.3 0.00 0.00 0.00 49 984.3
20260905045507 20 198 3.2 9.7 0.00 0.00 0.00 49 984.3
20260905045005 20 210 4.8 9.7 0.00 0.00 0.00 50 984.1
20260905044511 20 205 3.2 8.0 0.00 0.00 0.00 50 984.0
20260905044506 20 149 4.8 8.0 0.00 0.00 0.00 50 984.1
20260905043506 20 205 3.2 9.7 0.00 0.00 0.00 50 984.1
20260905043006 20 177 3.2 11.3 0.00 0.00 0.00 50 984.3
20260905042505 20 144 3.2 11.3 0.00 0.00 0.00 50 984.1
20260905042006 20 173 1.6 8.0 0.00 0.00 0.00 49 984.1
20260905041511 20 207 1.6 8.0 0.00 0.00 0.00 48 984.1
20260905041506 20 198 1.6 8.0 0.00 0.00 0.00 49 984.3
20260905040506 20 158 0.0 6.4 0.00 0.00 0.00 47 984.1
20260905040005 20 165 1.6 6.4 0.00 0.00 0.00 46 984.1
20260905035505 20 141 3.2 9.7 0.00 0.00 0.00 45 984.1
20260905035011 21 172 3.2 9.7 0.00 0.00 0.00 45 984.1
20260905035006 21 181 3.2 9.7 0.00 0.00 0.00 45 984.0
20260905034011 20 172 0.0 9.7 0.00 0.00 0.00 45 984.1
20260905034005 21 151 1.6 9.7 0.00 0.00 0.00 45 984.1
20260905033005 20 160 1.6 6.4 0.00 0.00 0.00 46 984.0
20260905032505 20 129 1.6 6.4 0.00 0.00 0.00 46 984.1
20260905032005 20 166 0.0 6.4 0.00 0.00 0.00 46 984.0
20260905031506 20 183 0.0 4.8 0.00 0.00 0.00 46 983.9
20260905031006 20 193 0.0 3.2 0.00 0.00 0.00 46 983.9
20260905030506 21 179 0.0 3.2 0.00 0.00 0.00 46 983.9
20260905030005 21 177 0.0 0.0 0.00 0.00 0.00 45 983.9
20260905025505 21 151 0.0 0.0 0.00 0.00 0.00 44 983.7
20260905025005 21 139 0.0 0.0 0.00 0.00 0.00 44 983.7
20260905024505 20 172 0.0 4.8 0.00 0.00 0.00 45 983.7
20260905024005 21 191 0.0 4.8 0.00 0.00 0.00 45 983.5
20260905023505 21 159 0.0 0.0 0.00 0.00 0.00 45 983.5
20260905023005 21 148 0.0 0.0 0.00 0.00 0.00 44 983.4
20260905022506 21 202 0.0 1.6 0.00 0.00 0.00 44 983.3
20260905022005 21 146 0.0 1.6 0.00 0.00 0.00 43 983.3
20260905021505 21 147 0.0 1.6 0.00 0.00 0.00 43 983.3
20260905021005 22 166 0.0 3.2 0.00 0.00 0.00 43 983.2
20260905020506 22 197 0.0 4.8 0.00 0.00 0.00 43 983.2
20260905020009 22 185 0.0 4.8 0.00 0.00 0.00 42 983.1
20260905020006 22 148 0.0 4.8 0.00 0.00 0.00 43 983.2
20260905015005 23 256 0.0 3.2 0.00 0.00 0.00 41 983.0
20260905014506 23 131 0.0 6.4 0.00 0.00 0.00 39 983.0
20260905014005 24 140 0.0 6.4 0.00 0.00 0.00 37 982.8
20260905013507 24 155 0.0 1.6 0.00 0.00 0.00 36 982.8
20260905013006 24 272 0.0 1.6 0.00 0.00 0.00 36 982.8
20260905012504 23 9 0.0 6.4 0.00 0.00 0.00 37 982.7
20260905012003 23 239 0.0 6.4 0.00 0.00 0.00 41 982.6
20260905011503 25 170 0.0 4.8 0.00 0.00 0.00 38 982.7
20260905011004 25 184 0.0 3.2 0.00 0.00 0.00 36 982.6
20260905010503 25 160 0.0 0.0 0.00 0.00 0.00 34 982.6
20260905010004 26 338 0.0 1.6 0.00 0.00 0.00 33 982.5
20260905005504 26 253 0.0 8.0 0.00 0.00 0.00 31 982.5
20260905005004 26 134 1.6 8.0 0.00 0.00 0.00 31 982.5
20260905004507 27 141 11.3 33.8 0.00 0.00 0.00 31 982.6
20260905004503 27 340 6.4 33.8 0.00 0.00 0.00 32 982.6
20260905003504 27 209 6.4 27.4 0.00 0.00 0.00 31 982.6
20260905003001 27 185 1.6 12.9 0.00 0.00 0.00 29 982.7
20260905002501 27 189 1.6 6.4 0.00 0.00 0.00 28 982.6
20260905002002 28 176 1.6 6.4 0.00 0.00 0.00 28 982.5
20260905001501 28 191 1.6 6.4 0.00 0.00 0.00 28 982.5
20260905001001 28 188 1.6 8.0 0.00 0.00 0.00 27 982.5
20260905000502 29 200 0.0 8.0 0.00 0.00 0.00 25 982.5
20260905000001 30 210 0.0 1.6 0.00 0.00 0.00 25 982.2
20260904235502 30 141 0.0 1.6 0.00 0.00 0.00 24 982.1
20260904235001 31 130 0.0 4.8 0.00 0.00 0.00 24 982.1
20260904234505 31 146 0.0 4.8 0.00 0.00 0.00 24 982.2
20260904234501 31 122 0.0 8.0 0.00 0.00 0.00 23 982.1
20260904233503 32 143 0.0 6.4 0.00 0.00 0.00 22 982.0
20260904233459 32 164 0.0 8.0 0.00 0.00 0.00 22 982.0
20260904232459 32 297 0.0 4.8 0.00 0.00 0.00 22 982.0
20260904231959 32 219 0.0 4.8 0.00 0.00 0.00 23 982.0
20260904231459 32 35 0.0 4.8 0.00 0.00 0.00 22 982.0
20260904231001 32 195 0.0 1.6 0.00 0.00 0.00 22 982.0
20260904230503 31 199 0.0 0.0 0.00 0.00 0.00 23 982.0
20260904230459 32 130 0.0 1.6 0.00 0.00 0.00 22 982.0
20260904225458 30 141 0.0 0.0 0.00 0.00 0.00 24 982.0
20260904225001 30 140 1.6 9.7 0.00 0.00 0.00 23 982.1
20260904224957 30 158 1.6 9.7 0.00 0.00 0.00 24 982.1
20260904224603 30 246 0.0 9.7 0.00 0.00 0.00 23 982.1
20260904223501 31 153 1.6 8.0 0.00 0.00 0.00 21 982.0
20260904223457 31 142 0.0 9.7 0.00 0.00 0.00 22 982.1
20260904222456 32 147 0.0 9.7 0.00 0.00 0.00 20 982.1
20260904221956 33 142 1.6 9.7 0.00 0.00 0.00 20 982.1
20260904221500 33 174 4.8 16.1 0.00 0.00 0.00 20 982.2
20260904221455 33 146 1.6 9.7 0.00 0.00 0.00 21 982.1
20260904220955 33 217 3.2 16.1 0.00 0.00 0.00 21 982.1
20260904220600 33 189 3.2 14.5 0.00 0.00 0.00 20 982.2
20260904215455 33 117 1.6 6.4 0.00 0.00 0.00 20 982.2
20260904214955 33 137 1.6 8.0 0.00 0.00 0.00 20 982.4
20260904214455 33 199 1.6 9.7 0.00 0.00 0.00 20 982.4
20260904213955 32 221 1.6 9.7 0.00 0.00 0.00 21 982.4
20260904213453 32 72 1.6 9.7 0.00 0.00 0.00 21 982.4
20260904212956 31 204 3.2 17.7 0.00 0.00 0.00 21 982.5
20260904212952 32 208 4.8 17.7 0.00 0.00 0.00 21 982.5
20260904211952 31 141 1.6 9.7 0.00 0.00 0.00 22 982.6
20260904211452 32 168 0.0 8.0 0.00 0.00 0.00 22 982.6
20260904210953 31 146 0.0 8.0 0.00 0.00 0.00 22 982.6
20260904210453 31 122 1.6 9.7 0.00 0.00 0.00 22 982.7
20260904205952 31 134 3.2 11.3 0.00 0.00 0.00 22 982.8
20260904205453 31 191 1.6 11.3 0.00 0.00 0.00 21 983.0
20260904204953 31 195 0.0 8.0 0.00 0.00 0.00 24 983.0
20260904204453 30 175 1.6 8.0 0.00 0.00 0.00 23 983.1
20260904203953 30 132 3.2 14.5 0.00 0.00 0.00 23 983.1
20260904203453 31 174 4.8 14.5 0.00 0.00 0.00 23 983.1
20260904202953 31 160 4.8 14.5 0.00 0.00 0.00 21 983.1
20260904202453 31 179 3.2 12.9 0.00 0.00 0.00 21 983.1
20260904201952 31 137 3.2 12.9 0.00 0.00 0.00 22 983.1
20260904201453 31 129 1.6 12.9 0.00 0.00 0.00 22 983.2
20260904200953 31 202 4.8 20.9 0.00 0.00 0.00 21 983.1
20260904195953 31 155 8.0 17.7 0.00 0.00 0.00 22 983.3
20260904195452 30 242 8.0 17.7 0.00 0.00 0.00 22 983.3
20260904194953 30 212 4.8 16.1 0.00 0.00 0.00 23 983.5
20260904194458 30 214 6.4 19.3 0.00 0.00 0.00 22 983.4
20260904194452 30 217 3.2 12.9 0.00 0.00 0.00 22 983.4
20260904193600 29 173 3.2 12.9 0.00 0.00 0.00 23 983.5
20260904193458 30 205 3.2 12.9 0.00 0.00 0.00 23 983.5
20260904193452 30 150 6.4 19.3 0.00 0.00 0.00 22 983.5
20260904191952 29 240 3.2 12.9 0.00 0.00 0.00 21 983.7
20260904191452 30 224 4.8 12.9 0.00 0.00 0.00 21 983.7
20260904190952 30 186 6.4 20.9 0.00 0.00 0.00 21 983.7
20260904190452 30 290 6.4 20.9 0.00 0.00 0.00 21 983.8
20260904185958 30 206 4.8 19.3 0.00 0.00 0.00 21 983.8
20260904185953 30 218 3.2 16.1 0.00 0.00 0.00 21 983.8
20260904184953 30 280 8.0 27.4 0.00 0.00 0.00 21 984.0
20260904184454 30 214 4.8 27.4 0.00 0.00 0.00 22 984.0
20260904183953 30 193 3.2 16.1 0.00 0.00 0.00 21 984.0
20260904183453 30 131 4.8 27.4 0.00 0.00 0.00 23 984.0
20260904182950 30 259 4.8 27.4 0.00 0.00 0.00 21 984.0
20260904182450 30 164 3.2 11.3 0.00 0.00 0.00 21 984.1
20260904181950 29 197 3.2 14.5 0.00 0.00 0.00 22 984.3
20260904181447 29 304 3.2 14.5 0.00 0.00 0.00 21 984.4
20260904180951 29 297 3.2 12.9 0.00 0.00 0.00 22 984.5
20260904180946 29 285 3.2 14.5 0.00 0.00 0.00 22 984.4
20260904180446 28 319 3.2 14.5 0.00 0.00 0.00 22 984.5
20260904180052 29 320 1.6 12.9 0.00 0.00 0.00 22 984.6
20260904174950 29 195 6.4 16.1 0.00 0.00 0.00 21 984.7
20260904174946 29 224 1.6 17.7 0.00 0.00 0.00 21 984.6
20260904174444 28 250 4.8 17.7 0.00 0.00 0.00 21 984.6
20260904173941 28 195 6.4 16.1 0.00 0.00 0.00 21 984.7
20260904172941 28 232 4.8 14.5 0.00 0.00 0.00 21 984.7
20260904171944 28 179 3.2 12.9 0.00 0.00 0.00 22 984.8
20260904171940 28 152 4.8 19.3 0.00 0.00 0.00 22 984.7
20260904171546 28 256 3.2 12.9 0.00 0.00 0.00 23 984.7
20260904170937 28 202 3.2 12.9 0.00 0.00 0.00 23 984.7
20260904165936 28 236 3.2 12.9 0.00 0.00 0.00 23 984.7
20260904165441 27 236 3.2 14.5 0.00 0.00 0.00 23 984.7
20260904165437 28 222 3.2 11.3 0.00 0.00 0.00 23 984.7
20260904164436 27 113 4.8 14.5 0.00 0.00 0.00 23 984.7
20260904163936 27 214 6.4 12.9 0.00 0.00 0.00 24 984.8
20260904163435 27 222 3.2 12.9 0.00 0.00 0.00 24 984.7
20260904162934 27 212 1.6 9.7 0.00 0.00 0.00 24 984.8
20260904162434 27 229 1.6 9.7 0.00 0.00 0.00 24 984.7
20260904161934 27 46 3.2 11.3 0.00 0.00 0.00 23 984.8
20260904161434 27 198 4.8 12.9 0.00 0.00 0.00 24 984.7
20260904160934 27 198 1.6 12.9 0.00 0.00 0.00 24 984.7
20260904160436 27 192 1.6 9.7 0.00 0.00 0.00 25 984.8
20260904155934 27 259 1.6 9.7 0.00 0.00 0.00 24 984.8
20260904155438 26 217 3.2 9.7 0.00 0.00 0.00 25 984.7
20260904155434 26 240 1.6 9.7 0.00 0.00 0.00 24 984.8
20260904155039 26 207 3.2 14.5 0.00 0.00 0.00 24 984.8
20260904153936 26 261 4.8 12.9 0.00 0.00 0.00 23 984.8
20260904153932 26 161 4.8 14.5 0.00 0.00 0.00 25 984.8
20260904152932 26 186 4.8 12.9 0.00 0.00 0.00 25 984.7
20260904152432 25 192 6.4 14.5 0.00 0.00 0.00 24 984.7
20260904151936 25 207 4.8 14.5 0.00 0.00 0.00 26 984.7
20260904151932 25 195 6.4 14.5 0.00 0.00 0.00 25 984.7
20260904150932 25 171 3.2 11.3 0.00 0.00 0.00 27 984.7
20260904150432 24 232 1.6 8.0 0.00 0.00 0.00 27 984.7
20260904145932 24 194 3.2 9.7 0.00 0.00 0.00 29 984.7
20260904145432 23 197 1.6 8.0 0.00 0.00 0.00 30 984.7
20260904144932 23 186 1.6 6.4 0.00 0.00 0.00 30 984.8
20260904144433 22 220 1.6 6.4 0.00 0.00 0.00 30 984.7
20260904143931 21 203 0.0 4.8 0.00 0.00 0.00 31 984.7
20260904143432 21 214 0.0 6.4 0.00 0.00 0.00 31 984.7
20260904142932 21 221 0.0 6.4 0.00 0.00 0.00 32 984.7
20260904142538 19 243 0.0 1.6 0.00 0.00 0.00 35 984.7
20260904142437 20 356 0.0 1.6 0.00 0.00 0.00 34 984.6
20260904142432 20 243 0.0 1.6 0.00 0.00 0.00 32 984.7
20260904141537 18 187 0.0 1.6 0.00 0.00 0.00 40 984.5
20260904140432 17 129 0.0 0.0 0.00 0.00 0.00 44 984.5
20260904135931 17 159 0.0 0.0 0.00 0.00 0.00 44 984.5
20260904135432 17 159 0.0 0.0 0.00 0.00 0.00 44 984.4
20260904134933 17 135 0.0 0.0 0.00 0.00 0.00 44 984.4
20260904134431 16 155 0.0 0.0 0.00 0.00 0.00 42 984.4
20260904133936 15 154 0.0 0.0 0.00 0.00 0.00 43 984.3
20260904133932 16 154 0.0 0.0 0.00 0.00 0.00 41 984.3
20260904132936 15 154 0.0 0.0 0.00 0.00 0.00 45 984.1
20260904132932 15 154 0.0 0.0 0.00 0.00 0.00 44 984.1
20260904131932 15 154 0.0 0.0 0.00 0.00 0.00 45 984.1
20260904131431 15 111 0.0 0.0 0.00 0.00 0.00 44 984.0
20260904130936 15 184 0.0 0.0 0.00 0.00 0.00 43 983.7
20260904130932 15 188 0.0 0.0 0.00 0.00 0.00 43 983.8
20260904125931 15 295 0.0 0.0 0.00 0.00 0.00 41 983.7
20260904125432 15 295 0.0 0.0 0.00 0.00 0.00 40 983.5
20260904124931 16 295 0.0 0.0 0.00 0.00 0.00 39 983.5
20260904124432 16 322 0.0 0.0 0.00 0.00 0.00 37 983.4
20260904123931 17 322 0.0 4.8 0.00 0.00 0.00 36 983.4
20260904123432 17 323 0.0 6.4 0.00 0.00 0.00 35 983.3
20260904122932 17 244 0.0 6.4 0.00 0.00 0.00 34 983.2
20260904122432 17 252 0.0 4.8 0.00 0.00 0.00 35 983.2
20260904121932 17 229 0.0 3.2 0.00 0.00 0.00 34 983.2
20260904121432 18 180 0.0 6.4 0.00 0.00 0.00 33 983.2
20260904120931 18 195 0.0 6.4 0.00 0.00 0.00 33 983.0
20260904120437 18 279 3.2 11.3 0.00 0.00 0.00 33 982.8
20260904120432 18 206 1.6 11.3 0.00 0.00 0.00 33 983.1
20260904115436 18 179 3.2 9.7 0.00 0.00 0.00 33 982.7
20260904115432 18 212 3.2 9.7 0.00 0.00 0.00 34 983.0
20260904115038 18 203 3.2 9.7 0.00 0.00 0.00 32 982.8
20260904113931 18 200 1.6 8.0 0.00 0.00 0.00 33 982.8
20260904113429 18 242 0.0 4.8 0.00 0.00 0.00 33 982.8
20260904112929 18 232 1.6 6.4 0.00 0.00 0.00 33 982.8
20260904112430 18 224 1.6 8.0 0.00 0.00 0.00 32 982.8
20260904111930 18 171 1.6 8.0 0.00 0.00 0.00 33 983.0
20260904111429 18 208 0.0 4.8 0.00 0.00 0.00 33 983.0
20260904110929 18 231 0.0 4.8 0.00 0.00 0.00 33 982.8
20260904110434 18 259 0.0 3.2 0.00 0.00 0.00 33 982.8
20260904110429 18 293 0.0 4.8 0.00 0.00 0.00 32 982.8
20260904105430 18 198 0.0 3.2 0.00 0.00 0.00 32 982.8
20260904104930 18 216 0.0 1.6 0.00 0.00 0.00 32 982.7
20260904104431 19 281 0.0 3.2 0.00 0.00 0.00 32 982.8
20260904103928 19 233 0.0 4.8 0.00 0.00 0.00 31 982.6
20260904103428 19 235 3.2 9.7 0.00 0.00 0.00 31 982.6
20260904102928 19 200 4.8 9.7 0.00 0.00 0.00 31 982.5
20260904102428 19 184 3.2 8.0 0.00 0.00 0.00 31 982.4
20260904101927 19 199 3.2 9.7 0.00 0.00 0.00 31 982.1
20260904101428 19 215 3.2 9.7 0.00 0.00 0.00 31 982.1
20260904100927 19 206 3.2 9.7 0.00 0.00 0.00 31 982.1
20260904100427 19 224 3.2 9.7 0.00 0.00 0.00 31 982.0
20260904095926 20 203 3.2 6.4 0.00 0.00 0.00 31 982.0
20260904095426 20 199 1.6 8.0 0.00 0.00 0.00 31 982.0
20260904094925 20 219 1.6 8.0 0.00 0.00 0.00 31 982.1
20260904094424 20 245 3.2 6.4 0.00 0.00 0.00 32 982.0
20260904093924 20 187 3.2 6.4 0.00 0.00 0.00 31 982.0
20260904093429 20 218 1.6 9.7 0.00 0.00 0.00 31 981.9
20260904093423 20 195 1.6 6.4 0.00 0.00 0.00 31 981.9
20260904093029 20 225 3.2 9.7 0.00 0.00 0.00 30 981.9
20260904091923 20 205 4.8 12.9 0.00 0.00 0.00 30 981.9
20260904091422 21 174 6.4 14.5 0.00 0.00 0.00 30 981.8
20260904090925 20 205 4.8 11.3 0.00 0.00 0.00 32 981.7
20260904090921 20 198 4.8 14.5 0.00 0.00 0.00 31 981.8
20260904085922 20 189 3.2 6.4 0.00 0.00 0.00 32 981.7
20260904085421 20 202 1.6 6.4 0.00 0.00 0.00 32 981.7
20260904084920 20 204 3.2 6.4 0.00 0.00 0.00 33 981.5
20260904084419 20 219 3.2 9.7 0.00 0.00 0.00 33 981.5
20260904083924 20 213 1.6 6.4 0.00 0.00 0.00 36 981.5
20260904083919 20 200 4.8 9.7 0.00 0.00 0.00 34 981.5
20260904083419 20 172 3.2 8.0 0.00 0.00 0.00 34 981.5
20260904082424 18 199 0.0 3.2 0.00 0.00 0.00 42 981.7
20260904082419 18 196 0.0 4.8 0.00 0.00 0.00 39 981.5
20260904081419 18 203 0.0 0.0 0.00 0.00 0.00 44 981.7
20260904080920 18 203 0.0 0.0 0.00 0.00 0.00 44 981.5
20260904080419 20 203 0.0 0.0 0.00 0.00 0.00 43 981.7
20260904075919 20 203 1.6 8.0 0.00 0.00 0.00 41 981.7
20260904075417 20 199 3.2 8.0 0.00 0.00 0.00 42 981.5
20260904074917 20 192 4.8 8.0 0.00 0.00 0.00 43 981.5
20260904074417 20 188 4.8 11.3 0.00 0.00 0.00 44 981.5
20260904073917 20 200 4.8 11.3 0.00 0.00 0.00 44 981.5
20260904073417 20 176 4.8 12.9 0.00 0.00 0.00 44 981.7
20260904072922 20 210 4.8 12.9 0.00 0.00 0.00 44 981.7
20260904072918 20 205 4.8 12.9 0.00 0.00 0.00 44 981.7
20260904071921 20 200 3.2 11.3 0.00 0.00 0.00 44 981.7
20260904071917 20 198 4.8 11.3 0.00 0.00 0.00 44 981.8
20260904070917 20 142 1.6 8.0 0.00 0.00 0.00 44 981.7
20260904070415 21 184 3.2 12.9 0.00 0.00 0.00 43 981.9
20260904065915 21 190 6.4 12.9 0.00 0.00 0.00 42 981.9
20260904065415 21 214 6.4 14.5 0.00 0.00 0.00 42 982.0
20260904064916 21 189 8.0 17.7 0.00 0.00 0.00 42 982.0
20260904064415 21 191 8.0 17.7 0.00 0.00 0.00 42 982.0
20260904063915 21 205 6.4 16.1 0.00 0.00 0.00 42 981.9
20260904063415 21 194 6.4 16.1 0.00 0.00 0.00 42 981.9
20260904062915 21 162 8.0 16.1 0.00 0.00 0.00 41 981.9
20260904062413 21 215 6.4 16.1 0.00 0.00 0.00 41 981.9
20260904061913 21 134 6.4 12.9 0.00 0.00 0.00 41 981.9
20260904061411 21 163 6.4 17.7 0.00 0.00 0.00 41 981.9
20260904060411 21 213 8.0 17.7 0.00 0.00 0.00 40 981.9
20260904055909 21 198 8.0 16.1 0.00 0.00 0.00 40 981.9
20260904055407 22 146 8.0 20.9 0.00 0.00 0.00 40 982.0
20260904054908 22 191 8.0 20.9 0.00 0.00 0.00 39 981.9
20260904054408 22 195 8.0 20.9 0.00 0.00 0.00 39 982.0
20260904053908 22 141 8.0 20.9 0.00 0.00 0.00 39 982.0
20260904053408 22 154 8.0 19.3 0.00 0.00 0.00 39 982.0